Weather History for Ahoskie, NC

Change the Weather History Date:

Sunday, May 5, 2013

  Actual Average (KEMV) Record (KEMV)
Temperature  
Mean Temperature 54 °F -  
Max Temperature 64 °F 73 °F 82 °F (2006)
Min Temperature 45 °F 48 °F 40 °F (1985)
Degree Days  
Heating Degree Days 10    
Growing Degree Days 4 (Base 50)    
Moisture  
Dew Point 50 °F    
Average Humidity 85    
Maximum Humidity 92    
Minimum Humidity 73    
Precipitation  
Precipitation 0.00 in - - ()
Sea Level Pressure  
Sea Level Pressure 30.10 in    
Wind  
Wind Speed 6 mph (NE)    
Max Wind Speed 12 mph    
Max Gust Speed 18 mph    
Visibility 8 miles    
Events Rain    
Averages and records for this station are not official NWS values.
T = Trace of Precipitation, MM = Missing Value Source: NWS Daily Summary

Daily Weather History Graph

Daily Weather History Graph

Search for Another Location

Airport:

Trip Planner

Search our weather history database for the weather conditions in past years. The results will help you decide how hot, cold, wet, or windy it might be!

Date:

Astronomy

May. 05, 2013 Rise Set
Actual Time 6:11 AM EDT 8:00 PM EDT
Civil Twilight 5:43 AM EDT 8:28 PM EDT
Nautical Twilight 5:09 AM EDT 9:01 PM EDT
Astronomical Twilight 4:33 AM EDT 9:38 PM EDT
Moon 3:33 AM EDT (5/5) 4:04 PM EDT (5/5)
Length of Visible Light 14h 44m
Length of Day
13h 48m
Waning Crescent, 18% of the Moon is Illuminated
May 5
Waning Crescent
May 9
New
May 18
First Quarter
May 25
Full
May 31
Last Quarter

Hourly Weather History & Observations

Time (EDT) Temp. Windchill Dew Point Humidity Pressure Visibility Wind Dir Wind Speed Gust Speed Precip Events Conditions
12:15 AM 50.0 °F - 46.9 °F 89% 30.14 in 10.0 mi NNE 3.5 mph - N/A   Clear
12:35 AM 50.0 °F - 46.9 °F 89% 30.14 in 10.0 mi NNE 4.6 mph - N/A   Clear
12:55 AM 50.0 °F - 47.1 °F 90% 30.14 in 10.0 mi North 4.6 mph - N/A   Clear
1:15 AM 49.5 °F - 46.6 °F 90% 30.14 in 10.0 mi NNE 5.8 mph - N/A   Clear
1:35 AM 47.5 °F - 44.8 °F 90% 30.13 in 7.0 mi Calm Calm - N/A   Clear
1:55 AM 45.9 °F - 43.3 °F 91% 30.13 in 7.0 mi Calm Calm - N/A   Clear
2:15 AM 45.1 °F - 42.8 °F 91% 30.12 in 7.0 mi Calm Calm - N/A   Clear
2:35 AM 45.1 °F 42.8 °F 42.8 °F 91% 30.11 in 7.0 mi North 4.6 mph - N/A   Clear
2:55 AM 45.1 °F 42.8 °F 42.8 °F 91% 30.10 in 7.0 mi North 4.6 mph - N/A   Clear
3:35 AM 45.1 °F 42.8 °F 42.8 °F 91% 30.10 in 7.0 mi North 4.6 mph - N/A   Clear
3:55 AM 45.1 °F 42.8 °F 42.8 °F 91% 30.10 in 7.0 mi North 4.6 mph - N/A   Clear
4:15 AM 45.1 °F 42.8 °F 42.8 °F 91% 30.10 in 7.0 mi North 4.6 mph - N/A   Clear
4:35 AM 45.1 °F 42.0 °F 42.8 °F 91% 30.09 in 7.0 mi North 5.8 mph - N/A   Clear
4:55 AM 45.1 °F 42.0 °F 42.8 °F 91% 30.09 in 7.0 mi North 5.8 mph - N/A   Clear
5:15 AM 45.1 °F 42.0 °F 42.8 °F 91% 30.09 in 7.0 mi North 5.8 mph - N/A   Clear
5:35 AM 45.1 °F 42.0 °F 42.8 °F 91% 30.09 in 7.0 mi North 5.8 mph - N/A   Clear
5:55 AM 45.3 °F 41.6 °F 42.8 °F 91% 30.09 in 7.0 mi North 6.9 mph - N/A   Clear
6:15 AM 45.5 °F 42.5 °F 43.2 °F 92% 30.10 in 5.0 mi North 5.8 mph - N/A   Clear
6:55 AM 47.5 °F - 45.0 °F 91% 30.11 in 5.0 mi North 5.8 mph - N/A   Mostly Cloudy
7:15 AM 49.6 °F - 47.1 °F 91% 30.12 in 7.0 mi NNE 6.9 mph - N/A   Scattered Clouds
7:35 AM 50.0 °F - 47.3 °F 90% 30.11 in 7.0 mi North 6.9 mph - N/A   Scattered Clouds
7:55 AM 50.0 °F - 47.3 °F 90% 30.11 in 7.0 mi NNE 10.4 mph - N/A   Scattered Clouds
8:15 AM 50.7 °F - 47.5 °F 89% 30.11 in 7.0 mi NNE 8.1 mph - N/A   Scattered Clouds
8:35 AM 52.7 °F - 48.7 °F 86% 30.12 in 10.0 mi NNE 8.1 mph - N/A   Scattered Clouds
8:55 AM 52.7 °F - 48.2 °F 85% 30.12 in 10.0 mi NNE 9.2 mph - N/A   Mostly Cloudy
9:15 AM 55.0 °F - 50.2 °F 84% 30.12 in 10.0 mi NNE 6.9 mph 16.1 mph N/A   Overcast
9:35 AM 56.3 °F - 50.7 °F 82% 30.12 in 10.0 mi NE 9.2 mph - N/A   Overcast
9:55 AM 57.4 °F - 51.1 °F 79% 30.11 in 10.0 mi ENE 10.4 mph 16.1 mph N/A   Overcast
10:15 AM 57.6 °F - 50.9 °F 78% 30.12 in 10.0 mi ENE 8.1 mph 16.1 mph N/A   Scattered Clouds
10:35 AM 57.9 °F - 51.3 °F 78% 30.11 in 10.0 mi NNE 8.1 mph - N/A   Mostly Cloudy
10:55 AM 58.3 °F - 51.1 °F 77% 30.12 in 10.0 mi NNE 11.5 mph 16.1 mph N/A   Mostly Cloudy
11:15 AM 60.1 °F - 52.3 °F 76% 30.12 in 10.0 mi NNE 10.4 mph 17.3 mph N/A   Mostly Cloudy
11:35 AM 60.1 °F - 52.3 °F 76% 30.12 in 10.0 mi NE 9.2 mph - N/A   Mostly Cloudy
11:55 AM 60.1 °F - 52.2 °F 75% 30.12 in 10.0 mi NE 8.1 mph - N/A   Overcast
12:15 PM 60.1 °F - 52.2 °F 75% 30.11 in 10.0 mi NE 9.2 mph 18.4 mph N/A   Overcast
12:35 PM 60.1 °F - 52.0 °F 75% 30.11 in 10.0 mi ENE 11.5 mph 17.3 mph N/A   Overcast
12:55 PM 60.1 °F - 52.7 °F 77% 30.11 in 10.0 mi NE 8.1 mph - N/A   Overcast
1:15 PM 58.5 °F - 52.2 °F 80% 30.11 in 5.0 mi ENE 8.1 mph - N/A   Haze
1:35 PM 60.1 °F - 53.8 °F 80% 30.11 in 5.0 mi ENE 6.9 mph - N/A Rain Rain
1:55 PM 57.6 °F - 52.5 °F 83% 30.11 in 5.0 mi ENE 6.9 mph - N/A   Drizzle
2:15 PM 57.6 °F - 53.6 °F 87% 30.11 in 3.0 mi ENE 4.6 mph - N/A Rain Rain
2:35 PM 57.4 °F - 53.8 °F 88% 30.11 in 4.0 mi NNE 6.9 mph - N/A   Light Drizzle
2:55 PM 57.6 °F - 53.6 °F 87% 30.10 in 7.0 mi NNE 9.2 mph - N/A   Overcast
3:15 PM 58.1 °F - 53.1 °F 83% 30.09 in 4.0 mi NE 8.1 mph 16.1 mph N/A Rain Rain
3:35 PM 59.5 °F - 54.9 °F 84% 30.09 in 5.0 mi NE 8.1 mph - N/A   Haze
3:55 PM 60.1 °F - 54.0 °F 80% 30.08 in 7.0 mi ENE 4.6 mph - N/A   Light Drizzle
4:15 PM 62.6 °F - 54.9 °F 76% 30.08 in 10.0 mi NE 8.1 mph 17.3 mph N/A   Scattered Clouds
4:35 PM 64.8 °F - 56.1 °F 74% 30.08 in 10.0 mi ENE 9.2 mph - N/A   Scattered Clouds
4:55 PM 62.6 °F - 54.0 °F 73% 30.09 in 10.0 mi ENE 6.9 mph - N/A   Mostly Cloudy
5:15 PM 60.1 °F - 53.1 °F 78% 30.09 in 7.0 mi NE 6.9 mph - N/A Rain Light Rain
5:35 PM 60.1 °F - 52.7 °F 77% 30.08 in 10.0 mi NE 6.9 mph - N/A   Overcast
5:55 PM 60.1 °F - 52.7 °F 77% 30.08 in 10.0 mi NE 5.8 mph - N/A   Overcast
6:15 PM 60.1 °F - 53.6 °F 79% 30.08 in 10.0 mi ENE 9.2 mph - N/A   Overcast
6:35 PM 57.6 °F - 52.7 °F 84% 30.08 in 4.0 mi NE 6.9 mph - N/A   Drizzle
6:55 PM 57.6 °F - 52.9 °F 84% 30.07 in 7.0 mi NNE 8.1 mph - N/A   Light Drizzle
7:15 PM 56.8 °F - 51.8 °F 83% 30.07 in 10.0 mi NNE 8.1 mph - N/A   Overcast
7:35 PM 56.3 °F - 51.4 °F 84% 30.07 in 7.0 mi NE 6.9 mph - N/A   Overcast
7:55 PM 56.3 °F - 51.8 °F 85% 30.07 in 7.0 mi NE 8.1 mph 16.1 mph N/A   Overcast
8:15 PM 56.3 °F - 51.8 °F 85% 30.07 in 10.0 mi NE 8.1 mph - N/A   Overcast
8:35 PM 55.9 °F - 51.4 °F 85% 30.08 in 10.0 mi NE 9.2 mph - N/A   Overcast
8:55 PM 55.0 °F - 50.9 °F 86% 30.08 in 10.0 mi ENE 8.1 mph - N/A   Overcast
9:15 PM 55.0 °F - 50.9 °F 86% 30.08 in 7.0 mi NE 8.1 mph - N/A   Overcast
9:35 PM 55.0 °F - 51.1 °F 86% 30.09 in 7.0 mi NNE 4.6 mph - N/A   Overcast
9:55 PM 55.0 °F - 51.1 °F 86% 30.09 in 7.0 mi NE 5.8 mph - N/A   Overcast
10:15 PM 55.0 °F - 51.1 °F 86% 30.09 in 7.0 mi NNE 6.9 mph - N/A   Overcast
10:35 PM 55.0 °F - 51.3 °F 87% 30.09 in 7.0 mi NE 5.8 mph - N/A   Overcast
10:55 PM 55.0 °F - 51.3 °F 87% 30.08 in 7.0 mi NNE 4.6 mph - N/A   Overcast
11:15 PM 55.0 °F - 51.3 °F 87% 30.08 in 7.0 mi NE 5.8 mph - N/A   Overcast
11:35 PM 55.0 °F - 51.3 °F 87% 30.08 in 7.0 mi NE 4.6 mph - N/A   Overcast
11:55 PM 55.0 °F - 51.4 °F 88% 30.08 in 7.0 mi NNE 5.8 mph - N/A   Overcast